Flag for Germany Weather past 2 weeks in Giessen, Hesse, Germany

Now
62 °F

Overcast.


Feels Like: 62 °F
Forecast: 51 / 66 °F
Wind: 5 mph from Southwest

Location: Giessen

Current Time: Jul 28, 2015 at 9:57:29 PM

Latest Report: Jul 28, 2015 at 9:00 PM


Visibility: 41 mi

Pressure: 29.78 "Hg

Humidity: 56%

Dew point: 46 °F

Location of GiessenLocation

Historic Weather in Giessen — Graph

°F

Giessen temperature yesterday

Maximum temperature yesterday: 67 °F (at 6:00 PM)
Minimum temperature yesterday: 56 °F (at 12:00 AM)
Average temperature yesterday: 61 °F

Past Weeks' High & Low Weather Summary

 TemperatureHumidityPressure
High96 °F (Jul 17, 5:00 PM)100% (Jul 19, 7:00 AM)30.13 "Hg (Jul 19, 7:00 AM)
Low49 °F (Jul 26, 5:00 AM)19% (Jul 17, 4:00 PM)29.59 "Hg (Jul 27, 10:00 AM)
Average69 °F67%29.91 "Hg
* Reported Jul 13 8:00 PM — Jul 28 8:00 PM, Giessen, Weather by CustomWeather, © 2015

Note: Actual official high and low records may vary slightly from our data, if they occured in-between our weather recording intervals... More about our weather records

Advertising

Giessen weather history for previous 24 hours

 ConditionsComfort  
Time TempWeatherWind HumidityBarometerVisibility
8:00 PM
Tue, Jul 28
63 °FOvercast.6 mph52%29.77 "Hg43 mi
7:00 PM64 °FOvercast.8 mph47%29.76 "Hg43 mi
6:00 PM65 °FOvercast.9 mph45%29.76 "Hg37 mi
5:00 PM66 °FOvercast.10 mph45%29.75 "Hg34 mi
4:00 PM67 °FOvercast.12 mph43%29.74 "Hg19 mi
3:00 PM65 °FOvercast.9 mph50%29.75 "Hg22 mi
2:00 PM66 °FPartly sunny.12 mph47%29.75 "Hg17 mi
1:00 PM63 °FOvercast.10 mph53%29.75 "Hg25 mi
12:00 PM63 °FOvercast.10 mph53%29.74 "Hg25 mi
11:00 AM61 °FOvercast.10 mph59%29.75 "Hg31 mi
10:00 AM61 °FOvercast.8 mph64%29.75 "Hg28 mi
9:00 AM59 °FOvercast.8 mph64%29.74 "Hg25 mi
8:00 AM58 °FPartly sunny.7 mph69%29.74 "Hg25 mi
7:00 AM55 °FSunny.5 mph74%29.74 "Hg31 mi
6:00 AM54 °FSunny.5 mph77%29.73 "Hg37 mi
5:00 AM56 °FPassing clouds.5 mph80%29.72 "Hg37 mi
4:00 AM57 °FOvercast.8 mph80%29.72 "Hg43 mi
3:00 AM58 °FOvercast.3 mph87%29.71 "Hg40 mi
2:00 AM58 °FOvercast.3 mph91%29.71 "Hg34 mi
1:00 AM58 °FLight rain. Low clouds.5 mph91%29.70 "Hg28 mi
11:00 PM
Mon, Jul 27
58 °FLight freezing rain. Low clouds.10 mph89%29.69 "Hg13 mi
10:00 PM64 °FOvercast.3 mph76%29.68 "Hg43 mi
9:00 PM64 °FOvercast.6 mph75%29.67 "Hg43 mi
Weather by CustomWeather, © 2015

See weather overviewHow to use our weather pages